Location: Chantarel
(45.1638°N, 1.7873°E)
Time: 07:26:33
(UTC+00:00)

Cosmos 1470 Rocket - Pass Details

Date: 03 March 2021
Orbit: 602 x 635 km, 82.5° (Epoch: 10 April)

Event Time Altitude Azimuth Distance (km) Brightness Sun altitude
Rises 18:34:31 0° 179° (S) 2,916 7.0 -9.9°
Reaches altitude 10° 18:36:46 10° 176° (S) 2,012 6.1 -10.3°
Maximum altitude 18:41:11 65° 95° (E) 698 3.6 -11.0°
Drops below altitude 10° 18:45:37 10° 15° (NNE) 2,015 6.1 -11.8°
Sets 18:47:51 0° 12° (NNE) 2,922 6.9 -12.2°
